Content
SEND FEEDBACK

Daily
Averages
Monthly
Summary
United States of America

BUFFALO, TEXAS


Home > North America > United States > Texas
Elevation: 370 feet     Latitude: 31 28N     Longitude: 096 04W

WEATHER
 
SELECT A DAY
Number of Records: 263,601;   Date Range: 11/7/03 - 7/14/14
 
SHARE

PRINT THIS DATA

[ ← Previous Day ]
WEATHER ALMANAC - JANUARY 31, 2013
[ Next Day → ]
[ °C ]   °F
Weather ElementAverageHighLow
Temperature47.8 °F64.6 °F (3:15 pm)28.9 °F (5:55 am)
Dewpoint25.8 °F30.7 °F (1:35 am)21.7 °F (4:35 pm)
Humidity49.3 %94 % (12:35 am)20 % (4:15 pm)
Barometer30.23 in30.28 in (9:15 am)30.19 in (4:55 am)
Wind Speed5.4 mph15 mph (4:35 pm)
Wind Gust23 mph (12:35 pm)
Weather ElementAverage
Visibility10 mi
Wind DirectionSE (132.1 °)

Weather ElementTotal
Precipitation---
Heating Degree Days18.3 (Base 65)
Averaged from 71 records on January 31, 2013
WEATHER CONDITIONS BREAKOUT
WIND DIRECTION BREAKOUT
WEATHER BY HOUR - JANUARY 31, 2013
[ °C ]   °F
Local TimeTemperatureDewpointHumidityBarometerVisibilityWind DirectionWind SpeedGust SpeedPrecipitationEventsConditions
12:35 AM30.2 °F28.8 °F94 %30.21 in10.0 miCalmClear
12:55 AM31.1 °F29.5 °F94 %30.21 in10.0 miCalmClear
1:15 AM31.1 °F29.7 °F94 %30.21 in10.0 miCalmClear
1:35 AM33.1 °F30.7 °F91 %30.21 in10.0 miCalmClear
1:55 AM31.8 °F28.9 °F89 %30.21 in10.0 miCalmClear
2:15 AM30.6 °F28.4 °F92 %30.21 in10.0 miSSE (150°)3.5 mphClear
2:35 AM32.9 °F26.6 °F78 %30.21 in10.0 miSE (140°)4.6 mphClear
2:55 AM34.0 °F26.1 °F73 %30.21 in10.0 miSSE (150°)3.5 mphClear
3:15 AM32.5 °F26.2 °F78 %30.21 in10.0 miSSE (150°)3.5 mphClear
3:35 AM34.3 °F25.5 °F70 %30.21 in10.0 miCalmClear
3:55 AM31.8 °F27.1 °F83 %30.20 in10.0 miCalmClear
4:15 AM32.0 °F28.8 °F88 %30.21 in10.0 miCalmClear
4:35 AM32.5 °F29.3 °F88 %30.20 in10.0 miCalmClear
4:55 AM32.2 °F26.4 °F79 %30.19 in10.0 miCalmClear
5:15 AM32.0 °F26.4 °F80 %30.20 in10.0 miCalmClear
5:35 AM29.3 °F26.6 °F90 %30.21 in10.0 miSSE (150°)3.5 mphClear
5:55 AM28.9 °F26.4 °F90 %30.21 in10.0 miCalmClear
6:15 AM30.4 °F27.3 °F88 %30.22 in10.0 miSSE (150°)3.5 mphClear
6:35 AM30.9 °F25.7 °F81 %30.23 in10.0 miSSE (150°)3.5 mphClear
6:55 AM31.6 °F25.7 °F79 %30.23 in10.0 miSE (140°)3.5 mphClear
7:15 AM31.3 °F25.3 °F79 %30.23 in10.0 miSE (130°)3.5 mphClear
7:35 AM32.4 °F25.3 °F75 %30.24 in10.0 miCalmClear
7:55 AM32.5 °F27.7 °F82 %30.25 in10.0 miSSE (150°)3.5 mphClear
8:15 AM35.6 °F27.5 °F72 %30.26 in10.0 miSSE (150°)4.6 mphClear
8:35 AM38.1 °F28.2 °F68 %30.26 in10.0 miSSE (150°)3.5 mphClear
8:55 AM40.5 °F28.9 °F64 %30.27 in10.0 miSouth (170°)3.5 mphClear
9:15 AM43.5 °F27.5 °F53 %30.28 in10.0 miSouth (180°)8.1 mphClear
9:35 AM47.1 °F25.5 °F43 %30.28 in10.0 miSouth (180°)6.9 mphClear
9:55 AM48.2 °F25.2 °F41 %30.28 in10.0 miSouth (190°)10.4 mphClear
10:15 AM49.8 °F26.1 °F40 %30.28 in10.0 miSouth (180°)10.4 mphClear
10:35 AM51.4 °F26.6 °F38 %30.28 in10.0 miSouth (190°)9.2 mphClear
10:55 AM54.5 °F26.8 °F34 %30.28 in10.0 miSSW (210°)10.4 mphClear
11:15 AM56.8 °F25.2 °F30 %30.28 in10.0 miSSW (210°)10.4 mph16.1 mphClear
11:35 AM58.5 °F23.9 °F26 %30.27 in10.0 miSSW (200°)12.7 mph17.3 mphClear
11:55 AM59.7 °F24.8 °F26 %30.27 in10.0 miSSW (200°)9.2 mphClear
12:15 PM60.1 °F24.3 °F25 %30.26 in10.0 miSW (220°)11.5 mph16.1 mphClear
12:35 PM61.0 °F25.0 °F25 %30.25 in10.0 miSW (220°)10.4 mph23.0 mphClear
12:55 PM61.2 °F25.0 °F25 %30.24 in10.0 miSouth (180°)11.5 mph16.1 mphClear
1:15 PM62.6 °F24.3 °F23 %30.23 in10.0 miSSW (210°)12.7 mph18.4 mphClear
1:35 PM63.0 °F23.0 °F22 %30.23 in10.0 miSW (220°)8.1 mphClear
1:55 PM63.9 °F22.6 °F21 %30.22 in10.0 miSSW (210°)12.7 mphClear
2:15 PM64.4 °F24.3 °F22 %30.21 in10.0 miSouth (190°)12.7 mph17.3 mphClear
2:35 PM64.4 °F23.7 °F21 %30.20 in10.0 miSouth (190°)13.8 mph19.6 mphClear
2:55 PM64.2 °F22.8 °F21 %30.19 in10.0 miSSW (200°)11.5 mph19.6 mphClear
3:15 PM64.6 °F23.0 °F21 %30.19 in10.0 miSSW (200°)10.4 mph16.1 mphClear
3:35 PM64.6 °F23.2 °F21 %30.19 in10.0 miSouth (180°)11.5 mphClear
3:55 PM64.6 °F23.7 °F21 %30.19 in10.0 miSouth (190°)10.4 mph18.4 mphClear
4:15 PM64.4 °F22.3 °F20 %30.20 in10.0 miSSW (210°)9.2 mph17.3 mphClear
4:35 PM63.9 °F21.7 °F20 %30.20 in10.0 miSSW (210°)15.0 mph20.7 mphClear
4:55 PM63.5 °F22.5 °F21 %30.20 in10.0 miSouth (190°)9.2 mphClear
5:15 PM62.6 °F23.7 °F23 %30.19 in10.0 miSSW (200°)9.2 mphClear
5:35 PM61.3 °F24.6 °F25 %30.19 in10.0 miSouth (170°)4.6 mphClear
5:55 PM59.5 °F25.7 °F27 %30.19 in10.0 miSouth (170°)3.5 mphClear
6:15 PM58.8 °F25.7 °F28 %30.21 in10.0 miCalmClear
6:35 PM57.6 °F25.9 °F30 %30.21 in10.0 miCalmClear
6:55 PM56.1 °F26.2 °F32 %30.22 in10.0 miCalmClear
7:15 PM54.5 °F25.9 °F33 %30.23 in10.0 miSouth (180°)3.5 mphClear
7:35 PM52.0 °F27.9 °F39 %30.23 in10.0 miCalmClear
7:55 PM52.0 °F27.0 °F38 %30.24 in10.0 miSSE (150°)3.5 mphClear
8:15 PM52.5 °F25.7 °F35 %30.25 in10.0 miSSE (160°)3.5 mphClear
8:35 PM52.2 °F25.5 °F36 %30.25 in10.0 miSSE (160°)3.5 mphClear
8:55 PM52.3 °F25.0 °F35 %30.26 in10.0 miSSE (150°)4.6 mphClear
9:15 PM52.3 °F24.6 °F34 %30.25 in10.0 miSSE (150°)3.5 mphClear
9:35 PM51.8 °F24.4 °F34 %30.26 in10.0 miSSE (150°)3.5 mphClear
9:55 PM52.0 °F24.3 °F34 %30.26 in10.0 miSE (140°)3.5 mphClear
10:15 PM51.6 °F24.3 °F34 %30.26 in10.0 miSSE (150°)3.5 mphClear
10:35 PM50.7 °F25.0 °F37 %30.26 in10.0 miSE (140°)3.5 mphClear
10:55 PM51.4 °F24.6 °F35 %30.27 in10.0 miSSE (150°)4.6 mphClear
11:15 PM50.9 °F25.3 °F37 %30.28 in10.0 miSSE (160°)5.8 mphClear
11:35 PM50.7 °F25.7 °F38 %30.28 in10.0 miSSE (160°)5.8 mphClear
11:55 PM50.9 °F26.2 °F38 %30.28 in10.0 miSSE (150°)5.8 mphClear
Hourly data recorded from KPSN, located miles away from Buffalo, Texas







STORIES FROM OUR PARTNERS